Torna al catalogo

STARLINK-32260

AttivoComunicazioniVLEO
NORAD 61522·PAYLOAD·🇺🇸 United States

Lanciato Oct 15, 2024 da Cape Canaveral Space Force Station

Loading…

Prossimi Passaggi (prossime 24 ore)

TLE

AggiornatoSource: CelesTrak SupGP

Epoca: Sep 15, 2026, 03:02 UTC

1 61522C 24183P   26258.12687500  .00114990  00000+0  27505-2 0  2588
2 61522  53.1560 338.5798 0005245 330.5979 311.2651 15.40823128    17

Traccia STARLINK-32260 in tempo reale con AllMySat

Download on the App Store